When you browse on this site, cookies collect data to enhance your experience and personalize the content and advertising you see.
Visit our Privacy Policy to learn more. By continuing to use the site, you agree to this use of cookies and data.
  • In Hungary
  • List of Countries
  • For 7 days
  • Water Temperature
  • Weather Map
  • News
  • Weather Widgets
  • user-avatar
    Login

    Hourly Weather Tripoli

    Today, 22 August, Thursday

    Time Temperature Precipitation Wind Pressure Humidity
    00:00 +21°C° 0 mm 1 mps 705 mmHg 51%
    01:00 +21°C° 0 mm 1 mps 705 mmHg 53%
    02:00 +21°C° 0 mm 1 mps 705 mmHg 57%
    03:00 +21°C° 0 mm 1 mps 704 mmHg 60%
    04:00 +20°C° 0 mm 2 mps 704 mmHg 64%
    05:00 +23°C° 0 mm 2 mps 705 mmHg 59%
    06:00 +25°C° 0 mm 3 mps 705 mmHg 54%
    07:00 +27°C° 0 mm 3 mps 706 mmHg 49%
    08:00 +28°C° 0 mm 4 mps 706 mmHg 44%
    09:00 +30°C° 0 mm 5 mps 706 mmHg 39%
    10:00 +32°C° 0 mm 5 mps 707 mmHg 35%
    11:00 +33°C° 0 mm 5 mps 707 mmHg 34%
    12:00 +33°C° 0 mm 6 mps 707 mmHg 33%
    13:00 +34°C° 0 mm 6 mps 707 mmHg 32%
    14:00 +33°C° 0 mm 5 mps 706 mmHg 33%
    15:00 +33°C° 0 mm 5 mps 706 mmHg 34%
    16:00 +32°C° 0 mm 5 mps 705 mmHg 36%
    17:00 +29°C° 0 mm 4 mps 705 mmHg 41%
    18:00 +27°C° 0 mm 3 mps 705 mmHg 46%
    19:00 +25°C° 0 mm 2 mps 705 mmHg 51%
    20:00 +24°C° 0 mm 2 mps 705 mmHg 52%
    21:00 +23°C° 0 mm 2 mps 705 mmHg 53%
    22:00 +23°C° 0 mm 2 mps 705 mmHg 53%
    23:00 +23°C° 0 mm 2 mps 705 mmHg 53%

    Tomorrow, 23 August, Friday

    Time Temperature Precipitation Wind Pressure Humidity
    00:00 +23°C° 0 mm 2 mps 704 mmHg 53%
    01:00 +23°C° 0 mm 2 mps 704 mmHg 53%
    02:00 +23°C° 0 mm 2 mps 704 mmHg 52%
    03:00 +22°C° 0 mm 3 mps 704 mmHg 51%
    04:00 +22°C° 0 mm 3 mps 704 mmHg 50%
    05:00 +23°C° 0 mm 4 mps 704 mmHg 45%
    06:00 +26°C° 0 mm 4 mps 705 mmHg 40%
    07:00 +27°C° 0 mm 5 mps 705 mmHg 35%
    08:00 +29°C° 0 mm 6 mps 706 mmHg 33%
    09:00 +30°C° 0 mm 7 mps 706 mmHg 31%
    10:00 +32°C° 0 mm 7 mps 706 mmHg 29%
    11:00 +33°C° 0 mm 7 mps 706 mmHg 28%
    12:00 +33°C° 0 mm 7 mps 706 mmHg 27%
    13:00 +34°C° 0 mm 7 mps 706 mmHg 26%
    14:00 +33°C° 0 mm 7 mps 705 mmHg 28%
    15:00 +32°C° 0 mm 6 mps 705 mmHg 29%
    16:00 +32°C° 0 mm 6 mps 705 mmHg 30%
    17:00 +29°C° 0 mm 5 mps 704 mmHg 35%
    18:00 +26°C° 0 mm 4 mps 704 mmHg 40%
    19:00 +24°C° 0 mm 2 mps 704 mmHg 44%
    20:00 +24°C° 0 mm 2 mps 704 mmHg 45%
    21:00 +23°C° 0 mm 2 mps 704 mmHg 46%
    22:00 +23°C° 0 mm 2 mps 704 mmHg 47%
    23:00 +23°C° 0 mm 2 mps 703 mmHg 48%

    Day after tomorrow, 24 August, Saturday

    Time Temperature Precipitation Wind Pressure Humidity
    00:00 +23°C° 0 mm 2 mps 703 mmHg 49%
    01:00 +23°C° 0 mm 2 mps 703 mmHg 49%
    02:00 +23°C° 0 mm 2 mps 703 mmHg 51%
    03:00 +21°C° 0 mm 2 mps 703 mmHg 52%
    04:00 +21°C° 0 mm 2 mps 703 mmHg 54%
    05:00 +24°C° 0 mm 2 mps 703 mmHg 49%
    06:00 +26°C° 0 mm 3 mps 703 mmHg 44%
    07:00 +28°C° 0 mm 3 mps 704 mmHg 39%
    08:00 +29°C° 0 mm 4 mps 704 mmHg 34%
    09:00 +32°C° 0 mm 5 mps 705 mmHg 29%
    10:00 +34°C° 0 mm 6 mps 705 mmHg 24%
    11:00 +34°C° 0 mm 6 mps 705 mmHg 25%
    12:00 +34°C° 0 mm 6 mps 705 mmHg 26%
    13:00 +34°C° 0 mm 6 mps 705 mmHg 27%
    14:00 +34°C° 0 mm 5 mps 704 mmHg 29%
    15:00 +33°C° 0 mm 5 mps 704 mmHg 31%
    16:00 +32°C° 0 mm 5 mps 704 mmHg 32%
    17:00 +29°C° 0 mm 4 mps 704 mmHg 38%
    18:00 +27°C° 0 mm 3 mps 703 mmHg 45%
    19:00 +24°C° 0 mm 2 mps 703 mmHg 51%
    20:00 +24°C° 0 mm 2 mps 703 mmHg 52%
    21:00 +23°C° 0 mm 2 mps 703 mmHg 52%
    22:00 +23°C° 0 mm 2 mps 703 mmHg 53%
    23:00 +23°C° 0 mm 2 mps 703 mmHg 53%

    25 August, Sunday

    Time Temperature Precipitation Wind Pressure Humidity
    00:00 +23°C° 0 mm 2 mps 703 mmHg 54%
    01:00 +21°C° 0 mm 2 mps 702 mmHg 54%
    02:00 +21°C° 0 mm 2 mps 702 mmHg 55%
    03:00 +21°C° 0 mm 2 mps 702 mmHg 56%
    04:00 +21°C° 0 mm 2 mps 702 mmHg 58%
    05:00 +24°C° 0 mm 2 mps 703 mmHg 51%
    06:00 +25°C° 0 mm 2 mps 703 mmHg 44%
    07:00 +27°C° 0 mm 2 mps 703 mmHg 38%
    08:00 +29°C° 0 mm 3 mps 704 mmHg 34%
    09:00 +31°C° 0 mm 3 mps 704 mmHg 30%
    10:00 +34°C° 0 mm 4 mps 705 mmHg 26%
    11:00 +34°C° 0 mm 4 mps 705 mmHg 25%
    12:00 +35°C° 0 mm 4 mps 705 mmHg 25%
    13:00 +36°C° 0 mm 4 mps 705 mmHg 24%
    14:00 +35°C° 0 mm 3 mps 704 mmHg 25%
    15:00 +34°C° 0 mm 3 mps 704 mmHg 27%
    16:00 +33°C° 0 mm 3 mps 704 mmHg 28%
    17:00 +30°C° 0 mm 2 mps 704 mmHg 35%
    18:00 +27°C° 0 mm 1 mps 703 mmHg 41%
    19:00 +24°C° 0 mm 1 mps 703 mmHg 48%
    20:00 +24°C° 0 mm 1 mps 703 mmHg 48%
    21:00 +24°C° 0 mm 1 mps 703 mmHg 49%
    22:00 +23°C° 0 mm 1 mps 703 mmHg 49%
    23:00 +23°C° 0 mm 1 mps 703 mmHg 49%

    26 August, Monday

    Time Temperature Precipitation Wind Pressure Humidity
    00:00 +23°C° 0 mm 1 mps 703 mmHg 48%
    01:00 +23°C° 0 mm 1 mps 703 mmHg 48%
    02:00 +23°C° 0 mm 2 mps 703 mmHg 50%
    03:00 +21°C° 0 mm 2 mps 703 mmHg 52%
    04:00 +21°C° 0 mm 2 mps 703 mmHg 54%
    05:00 +24°C° 0 mm 2 mps 703 mmHg 49%
    06:00 +26°C° 0 mm 2 mps 704 mmHg 44%
    07:00 +28°C° 0 mm 3 mps 704 mmHg 39%
    08:00 +29°C° 0 mm 3 mps 705 mmHg 35%
    09:00 +32°C° 0 mm 4 mps 705 mmHg 31%
    10:00 +33°C° 0 mm 5 mps 705 mmHg 26%
    11:00 +34°C° 0 mm 5 mps 705 mmHg 26%
    12:00 +34°C° 0 mm 5 mps 705 mmHg 25%
    13:00 +35°C° 0 mm 5 mps 705 mmHg 25%
    14:00 +34°C° 0 mm 4 mps 705 mmHg 26%
    15:00 +33°C° 0 mm 4 mps 705 mmHg 28%
    16:00 +31°C° 0 mm 3 mps 705 mmHg 30%
    17:00 +29°C° 0 mm 3 mps 704 mmHg 34%
    18:00 +26°C° 0 mm 2 mps 704 mmHg 39%
    19:00 +24°C° 0 mm 1 mps 704 mmHg 44%
    20:00 +24°C° 0 mm 1 mps 704 mmHg 44%
    21:00 +23°C° 0 mm 1 mps 704 mmHg 44%
    22:00 +23°C° 0 mm 1 mps 704 mmHg 44%
    23:00 +23°C° 0 mm 1 mps 704 mmHg 44%

    27 August, Tuesday

    Time Temperature Precipitation Wind Pressure Humidity
    00:00 +22°C° 0 mm 1 mps 703 mmHg 44%
    01:00 +22°C° 0 mm 1 mps 703 mmHg 44%
    02:00 +22°C° 0 mm 1 mps 703 mmHg 45%
    03:00 +22°C° 0 mm 1 mps 703 mmHg 45%
    04:00 +22°C° 0 mm 1 mps 703 mmHg 46%
    05:00 +24°C° 0 mm 2 mps 704 mmHg 43%
    06:00 +26°C° 0 mm 2 mps 704 mmHg 40%
    07:00 +28°C° 0 mm 2 mps 704 mmHg 37%
    08:00 +29°C° 0 mm 3 mps 705 mmHg 34%
    09:00 +32°C° 0 mm 4 mps 705 mmHg 30%
    10:00 +33°C° 0 mm 5 mps 706 mmHg 26%
    11:00 +34°C° 0 mm 5 mps 706 mmHg 26%
    12:00 +34°C° 0 mm 5 mps 706 mmHg 26%
    13:00 +35°C° 0 mm 5 mps 705 mmHg 25%
    14:00 +34°C° 0 mm 4 mps 705 mmHg 27%
    15:00 +33°C° 0 mm 4 mps 705 mmHg 29%
    16:00 +32°C° 0 mm 4 mps 704 mmHg 31%
    17:00 +28°C° 0 mm 3 mps 704 mmHg 36%
    18:00 +26°C° 0 mm 2 mps 704 mmHg 41%
    19:00 +24°C° 0 mm 1 mps 704 mmHg 46%
    20:00 +23°C° 0 mm 1 mps 704 mmHg 47%
    21:00 +23°C° 0 mm 1 mps 704 mmHg 48%
    22:00 +22°C° 0 mm 1 mps 704 mmHg 48%
    23:00 +22°C° 0 mm 1 mps 704 mmHg 48%
    Show more